OBJECT_NAME,OBJECT_ID,EPOCH,MEAN_MOTION,ECCENTRICITY,INCLINATION,RA_OF_ASC_NODE,ARG_OF_PERICENTER,MEAN_ANOMALY,EPHEMERIS_TYPE,CLASSIFICATION_TYPE,NORAD_CAT_ID,ELEMENT_SET_NO,REV_AT_EPOCH,BSTAR,MEAN_MOTION_DOT,MEAN_MOTION_DDOT LEMUR-1,2014-033AL,2026-09-11T23:47:55.317408,14.85513227,.00486915,97.8000,42.9468,151.8749,208.5113,0,U,40044,999,65835,.1974436E-3,.1686E-4,0 LEMUR-2-GREENBERG,2017-042N,2026-09-12T07:35:31.108992,15.33815386,.00093035,97.3854,75.7324,58.5962,301.6190,0,U,42837,999,50173,.40268554E-3,.13115E-3,0 LEMUR-2-ANDIS,2017-042P,2026-09-12T01:24:48.305952,15.38142760,.00086903,97.3693,75.9988,56.7723,303.4353,0,U,42838,999,50179,.47355543E-3,.17742E-3,0 LEMUR-2-MONSON,2017-042Q,2026-09-12T06:13:35.777568,15.30198442,.00073096,97.4117,75.4995,52.8736,307.3172,0,U,42839,999,50147,.36362652E-3,.1056E-3,0 LEMUR-2-FURIAUS,2017-042R,2026-09-11T23:24:51.732000,15.32868381,.00079172,97.3801,73.1535,109.9251,250.2845,0,U,42840,999,50149,.48615183E-3,.15383E-3,0 LEMUR-2-PETERG,2017-042S,2026-09-12T06:54:05.290272,15.37347025,.00043048,97.4001,80.7013,41.7063,318.4509,0,U,42841,999,50180,.48133746E-3,.17559E-3,0 LEMUR-2-DEMBITZ,2017-042T,2026-09-11T23:57:10.271520,15.32750642,.00073694,97.3840,76.2509,71.6970,288.5073,0,U,42842,999,50163,.47597548E-3,.15001E-3,0 LEMUR-2-ZACHARY,2017-042W,2026-09-12T02:36:53.416512,15.58499665,.00033121,97.3525,89.0871,62.4053,297.7539,0,U,42845,999,50270,.64376488E-3,.49255E-3,0 LEMUR-2-AMANDA-SVANTE,2021-034B,2026-09-12T03:33:47.811456,15.39450247,.00007625,97.5695,336.0298,293.0741,67.0423,0,U,48269,999,29441,.74477252E-3,.29173E-3,0 LEMUR-2-EMBRIONOVIS,2023-084AQ,2026-09-12T05:17:48.873984,15.39598438,.00083986,97.6406,42.9601,13.1578,346.9885,0,U,56970,999,18106,.26979814E-3,.10549E-3,0 LEMUR-2-DEVERILL-M-T,2023-100F,2026-09-12T03:14:17.981376,15.43845617,.00062285,99.4387,319.2911,104.4599,255.7334,0,U,57391,999,17464,.5612976E-3,.254E-3,0 LEMUR-2-BASS,2023-174D,2026-09-12T05:23:03.564384,15.45716627,.00060444,97.3813,341.3011,202.6513,157.4470,0,U,58259,999,15879,.28606629E-3,.13744E-3,0 LEMUR-2-JK0903EM1407,2023-174CJ,2026-09-12T05:07:07.159584,15.55946525,.00048462,97.3909,348.3980,149.8162,210.3372,0,U,58336,999,15924,.33619477E-3,.23275E-3,0 LEMUR-2-MJR092620,2023-174CN,2026-09-12T04:39:21.125664,15.47814230,.00061977,97.3960,347.0017,151.5267,208.6323,0,U,58340,999,15909,.30243232E-3,.15631E-3,0 LEMUR-2-NIMBUS2000,2024-022A,2026-09-12T02:50:30.132384,15.43336356,.00086951,97.3998,106.3855,153.5479,206.6214,0,U,58899,999,14566,.40869929E-3,.18171E-3,0 LEMUR-2-VALHALLA,2024-022B,2026-09-12T02:16:23.995488,15.42027984,.00093903,97.3998,106.2456,150.1843,209.9941,0,U,58900,999,14565,.27792331E-3,.11791E-3,0 LEMUR-2-CAEL,2024-022E,2026-09-12T02:09:50.869440,15.43532327,.00082747,97.3978,107.3409,132.7691,227.4255,0,U,58903,999,14573,.28511169E-3,.12723E-3,0 LEMUR-2-JOHNNYTRUONG,2024-043BA,2026-09-11T23:39:50.482080,15.67260686,.00033909,97.5440,52.5493,213.0207,147.0842,0,U,59146,999,14160,.44296236E-3,.47611E-3,0 LEMUR-2-TOMATOKECHUP,2024-149D,2026-09-12T05:23:32.070336,15.37639800,.00001657,97.3754,337.5705,315.8037,44.3194,0,U,60471,999,11553,.21879522E-3,.8001E-4,0 LEMUR-2-STELLA,2024-149BT,2026-09-12T04:51:38.153088,15.13435928,.0001768,97.6698,338.1215,101.3477,258.7952,0,U,60533,999,11365,.41781391E-3,.7401E-4,0 LEMUR-2-MARHISYAM,2024-149BW,2026-09-12T03:40:28.074144,15.12709422,.00024694,97.6846,338.5993,147.0821,213.0564,0,U,60536,999,11362,.37654676E-3,.6528E-4,0 LEMUR-2-AHMED-ASRAR,2024-149DN,2026-09-12T03:54:36.355392,15.14388856,.0003156,97.6979,341.0588,76.9907,283.1677,0,U,60576,999,11372,.3981557E-3,.7242E-4,0 LEMUR-2-LLOYD,2024-149DP,2026-09-12T04:24:58.201344,15.10663884,.00033486,97.6702,336.4286,191.7400,168.3752,0,U,60577,999,11352,.44487162E-3,.7299E-4,0 LEMUR-2-SQUIRRELCOMM,2024-149DQ,2026-09-12T03:17:52.592928,15.07989289,.00068372,97.6666,335.8030,111.2849,248.9110,0,U,60578,999,11350,.22428205E-3,.3387E-4,0 LEMUR-2-SIERRINI,2024-149DR,2026-09-12T04:33:52.918848,15.12539213,.00040242,97.6802,338.2489,226.5436,133.5460,0,U,60579,999,11360,.46300972E-3,.8007E-4,0 LEMUR-2-WILSON,2025-009CP,2026-09-12T03:40:58.397088,14.95466797,.00046627,97.6968,332.0817,104.5636,255.6102,0,U,62694,999,9035,.15720376E-3,.1683E-4,0 LEMUR-2-STAR-FOX,2025-009CR,2026-09-12T00:55:23.083968,15.03513743,.00025898,97.6899,336.0424,148.5774,211.5607,0,U,62696,999,9060,.30674582E-3,.4123E-4,0 LEMUR-2-ARIANNA,2025-009CU,2026-09-12T04:04:20.524800,15.03540443,.00026254,97.6843,335.8803,158.1815,201.9523,0,U,62699,999,9062,.40495109E-3,.5467E-4,0 LEMUR-2-ALISIA,2025-009DB,2026-09-11T19:06:44.716032,15.03866262,.0001551,97.6902,336.4298,315.2879,44.8221,0,U,62706,999,11317,.37535E-3,.5107E-4,0 LEMUR-2-ROUNDTRIPPER,2025-009DG,2026-09-12T03:48:32.900832,15.04996349,.00034748,97.7212,337.7650,177.1370,182.9876,0,U,62711,999,9070,.43383987E-3,.6095E-4,0 LEMUR-2-MYNAMEISJEFF,2025-009DH,2026-09-12T03:46:03.288000,15.04988296,.00013393,97.7260,338.1987,201.8088,158.3082,0,U,62712,999,9070,.38077828E-3,.534E-4,0 LEMUR-2-LEIA-PHILIP,2025-052AN,2026-09-12T03:20:56.530752,14.97590325,.00028511,97.6704,145.5795,319.0042,41.0965,0,U,63246,999,8168,.13501116E-3,.152E-4,0 LEMUR-2-LIA-MARTIN,2025-052AQ,2026-09-12T04:06:38.325024,14.98408387,.00016411,97.6740,146.2371,237.7004,122.4060,0,U,63248,999,8170,.27220599E-3,.319E-4,0 LEMUR-2-DELOITTE-1,2025-052BB,2026-09-11T16:40:37.584480,14.98100693,.00016736,97.6776,146.1000,135.8711,224.2645,0,U,63259,999,8164,.21997848E-3,.2546E-4,0 LEMUR-2-EMERSONROSE,2025-052BD,2026-09-11T14:00:34.148448,14.99616485,.00050775,97.6762,146.7194,106.5126,253.6655,0,U,63261,999,8168,.28060594E-3,.3397E-4,0 LEMUR-2-MARACHE-FRAN,2025-052BE,2026-09-11T16:45:46.165536,15.00727451,.00112598,97.6669,147.2427,70.7771,289.4671,0,U,63262,999,8173,.29649421E-3,.3703E-4,0 LEMUR-2-THEFALCONER,2025-052BG,2026-09-11T16:02:16.299744,14.97794968,.00037251,97.6735,145.5973,71.2647,288.8979,0,U,63264,999,8163,.51375144E-4,.546E-5,0 LEMUR-2-UNTITLED-SC,2025-061A,2026-09-11T21:10:51.596832,15.14003998,.00176794,97.5736,229.6875,331.2993,28.7264,0,U,63351,999,8070,.18486618E-3,.3301E-4,0 LEMUR-2-ESPERANZA,2025-061B,2026-09-12T04:25:19.553376,15.14108459,.00172626,97.5744,230.1026,329.6982,30.3250,0,U,63352,999,8075,.14698705E-3,.2618E-4,0 LEMUR-2-KREMPEL-BRO2,2025-061C,2026-09-12T04:28:10.464672,15.14551261,.00179277,97.5791,230.7490,321.2798,38.7148,0,U,63353,999,8077,.14947119E-3,.2697E-4,0 LEMUR-2-THERMORAPTOR,2025-061D,2026-09-11T21:35:04.417152,15.14632613,.00176356,97.5795,230.5555,321.2908,38.7059,0,U,63354,999,8073,.16832458E-3,.3053E-4,0 LEMUR-2-NEUROSPICY,2025-061E,2026-09-11T22:19:44.429376,15.14750207,.0015628,97.5721,230.1456,325.5019,34.5197,0,U,63355,999,8074,.17017485E-3,.3096E-4,0 LEMUR-2-TILLINFINITY,2025-061F,2026-09-11T22:21:39.243744,15.15355392,.00165052,97.5706,230.4993,312.1264,47.8564,0,U,63356,999,8077,.17298086E-3,.3204E-4,0 LEMUR-2-KREMPEL-BRO1,2025-061G,2026-09-12T04:20:21.501024,15.15147595,.00171236,97.5709,230.6386,312.3806,47.5976,0,U,63357,999,8080,.15161118E-3,.2783E-4,0 LEMUR-2-LANGER2SPACE,2025-061H,2026-09-11T21:28:22.812672,15.14834107,.0015426,97.5713,230.1319,323.8846,36.1343,0,U,63358,999,8074,.17376E-3,.317E-4,0 LEMUR-2-BALTO,2025-052BH,2026-09-12T03:33:40.677408,15.00709004,.00093709,97.6697,147.7421,130.8838,229.3200,0,U,63395,999,8180,.19469214E-3,.2409E-4,0 LEMUR-2-KRISH,2025-135AK,2026-09-12T03:03:59.119776,14.96882602,.0001555,97.7815,9.4765,105.8357,254.3036,0,U,64561,999,6692,.33820936E-3,.3822E-4,0 LEMUR-2-HUBBLE-4,2025-135AP,2026-09-12T07:01:24.455424,14.93728970,.0002759,97.7764,8.2258,31.9310,328.2077,0,U,64565,999,6687,.76081069E-4,.749E-5,0 LEMUR-2-SEJONG-2,2025-135BL,2026-09-12T06:21:07.945056,14.97318469,.00052906,97.7760,9.7599,52.8362,307.3342,0,U,64586,999,6697,.30119647E-3,.3436E-4,0 LEMUR-2-HUBBLE-5,2025-135BT,2026-09-12T06:40:54.447744,14.94356707,.00066872,97.7787,8.9495,58.2258,301.9613,0,U,64840,999,6691,.11682202E-3,.1199E-4,0 LEMUR-2-KARENDARRELL,2025-135BU,2026-09-12T06:23:22.494048,15.01192137,.00104506,97.7859,11.4753,278.1478,81.8560,0,U,64841,999,6707,.34132612E-3,.4322E-4,0 LEMUR-2-LUCILLE-ROSE,2025-135BV,2026-09-11T18:33:50.144256,15.01200807,.00127342,97.7657,10.9357,7.7091,352.4326,0,U,65403,999,6162,.39082277E-3,.4963E-4,0 LEMUR-2-AFFIE-WAUWIE,2025-248C,2026-09-11T07:35:48.179040,15.30099405,.00079939,45.3927,7.2741,237.4052,122.6067,0,U,66295,999,4777,.62919792E-3,.18427E-3,0 OTTER SDM,2025-276N,2026-09-12T03:13:05.471904,15.20668710,.00069375,97.4144,327.1901,63.3864,296.8082,0,U,66678,999,4362,.22723941E-3,.4925E-4,0 LEMUR-2-STAS-GORBUK,2025-276W,2026-09-11T04:27:21.185568,15.20153453,.00064545,97.4182,326.2951,65.7884,294.4025,0,U,66686,999,4347,.17301963E-3,.3676E-4,0 LEMUR-2-TEODOR,2025-276DG,2026-09-12T03:02:05.267040,15.21853739,.00014944,97.4086,327.5689,122.5197,237.6183,0,U,66768,999,4366,.16526691E-3,.3688E-4,0 LEMUR-2-LAILA,2025-276DQ,2026-09-12T03:40:24.813408,15.22088408,.0001,97.4109,327.7724,145.9367,214.1934,0,U,66776,999,4367,.18070318E-3,.4067E-4,0 LEMUR-2-CELIJO-SB-PK,2025-276DV,2026-09-12T03:10:58.834560,15.00853845,.00017178,97.5154,323.0338,220.3510,139.7587,0,U,66781,999,3566,.35383509E-3,.4442E-4,0 LEMUR-2-FINNIAN,2025-276DW,2026-09-12T03:51:21.189024,15.00981005,.00106557,97.5246,323.4627,153.8288,206.3477,0,U,66782,999,3304,.28749659E-3,.3614E-4,0 LEMUR-2-STARLIGHT,2025-276DX,2026-09-12T02:55:05.493504,14.99818557,.00161943,97.5150,322.8023,193.3118,166.7681,0,U,66783,999,4322,.30509581E-3,.3729E-4,0 LEMUR-2-TARTIFLETTE,2025-276DY,2026-09-12T02:52:47.008992,14.99808319,.00150249,97.5152,322.8109,201.2611,158.7990,0,U,66784,999,4322,.24251616E-3,.295E-4,0 LEMUR-2-VUKASIN,2025-276DZ,2026-09-12T04:16:21.884448,15.00968843,.00057263,97.5049,323.2614,141.1479,219.0158,0,U,66785,999,4319,.28141081E-3,.3533E-4,0 LEMUR-2-HOTSPUR-TOM,2025-276EA,2026-09-12T02:50:04.046496,14.99735162,.00153742,97.5143,322.7652,197.9347,162.1336,0,U,66786,999,4315,.29333725E-3,.3574E-4,0 LEMUR-2-MYRA,2025-276EB,2026-09-12T03:24:59.513472,15.00991274,.00160031,97.5313,323.2479,213.2966,146.7253,0,U,66787,999,4325,.38860682E-3,.4915E-4,0 LEMUR-2 FIKRETDENGIZ,2026-004A,2026-09-11T23:31:05.065536,14.88876606,.00076848,97.8077,252.2660,204.5579,155.5273,0,U,67363,999,3619,.25848336E-3,.237E-4,0 TWILIGHT-1 OBJECT B,2026-004B,2026-09-11T23:34:46.601184,14.87950420,.00080155,97.8127,252.2258,194.3786,165.7204,0,U,67364,999,3619,.13029756E-3,.114E-4,0 LEMUR-2-MARIO-SOUSA,2026-004C,2026-09-12T05:16:31.908864,14.89093087,.00072831,97.8047,252.4949,204.0775,156.0102,0,U,67365,999,3624,.24228403E-3,.223E-4,0 LEMUR-2-SONNENBLUME,2026-004E,2026-09-12T05:40:24.252384,14.88695290,.00070071,97.8052,252.4514,206.4657,153.6203,0,U,67367,999,3624,.196672E-3,.1782E-4,0 LEMUR-2-WOBLER,2026-004F,2026-09-12T06:44:37.400352,14.89049912,.00073207,97.8098,252.7129,193.8734,166.2283,0,U,67368,999,3625,.30779385E-3,.2845E-4,0 LEMUR-2-GRAM-E-SUE,2026-004H,2026-09-12T05:05:32.169696,14.88881383,.00060526,97.8032,252.4465,206.5782,153.5125,0,U,67370,999,3624,.34644067E-3,.3196E-4,0 LEMUR-2-KATIE,2026-004AA,2026-09-12T05:38:05.906976,14.90652268,.00037108,97.8089,253.2225,137.7504,222.4000,0,U,67387,999,3627,.30134817E-3,.2898E-4,0 LEMUR-2-HCS-BAZUS,2026-004AB,2026-09-12T05:35:47.867424,14.90647271,.0003536,97.8077,253.1900,130.9972,229.1553,0,U,67388,999,3627,.28725187E-3,.2759E-4,0